Location: Ellerstadt
(49.4644°N, 8.2615°E)
Time: 19:46:24
(UTC+00:00)

Vanguard 1 - Pass Details

Date: 20 June 2021
Orbit: 651 x 3832 km, 34.2° (Epoch: 27 July)

Event Time Altitude Azimuth Distance (km) Brightness Sun altitude
Rises 17:26:24 0° 188° (S) 7,570 14.5 18.0°
Reaches altitude 10° 17:33:51 10° 173° (S) 6,824 14.2 16.8°
Maximum altitude 17:47:42 20° 136° (SE) 6,040 13.7 14.6°
Drops below altitude 10° 18:00:32 10° 99° (E) 6,385 13.6 12.7°
Sets 18:06:55 0° 85° (E) 6,972 13.9 11.7°
